Flag for Poland Weather past 2 weeks in Kalisz, Poland

Now
76 °F

Overcast.


Feels Like: 78 °F
Forecast: 66 / 87 °F
Wind: 2 mph from Northwest

Location: Kalisz

Current Time: Jul 5, 2015 at 8:47:39 AM

Latest Report: Jul 5, 2015 at 8:00 AM


Visibility: 10 mi

Pressure: 30.09 "Hg

Humidity: 61%

Dew point: 62 °F

Location of KaliszLocation

Historic Weather in Kalisz — Graph

°F

Kalisz temperature yesterday

Maximum temperature yesterday: 91 °F (at 5:00 PM)
Minimum temperature yesterday: 63 °F (at 5:00 AM)
Average temperature yesterday: 79 °F

Past Weeks' High & Low Weather Summary

 TemperatureHumidityPressure
High91 °F (Jul 4, 5:00 PM)100% (Jun 28, 6:00 AM)30.39 "Hg (Jun 28, 6:00 AM)
Low47 °F (Jun 24, 5:00 AM)28% (Jul 3, 4:00 PM)29.69 "Hg (Jun 23, 4:00 AM)
Average64 °F69%30.10 "Hg
* Reported Jun 20 7:00 AM — Jul 5 7:00 AM, Kalisz, Weather by CustomWeather, © 2015

Note: Actual official high and low records may vary slightly from our data, if they occured in-between our weather recording intervals... More about our weather records

Advertising

Kalisz weather history for previous 24 hours

 ConditionsComfort  
Time TempWeatherWind HumidityBarometerVisibility
7:00 AM
Sun, Jul 5
70 °FOvercast.No wind71%30.09 "Hg9 mi
6:00 AM66 °FPartly sunny.1 mph75%30.09 "Hg7 mi
4:00 AM69 °FPassing clouds.2 mph63%30.08 "Hg12 mi
3:00 AM69 °FClear.1 mph63%30.09 "Hg9 mi
2:00 AM70 °FClear.1 mph59%30.09 "Hg12 mi
1:00 AM72 °FClear.1 mph60%30.09 "Hg9 mi
12:00 AM75 °FClear.2 mph50%30.10 "Hg12 mi
11:00 PM
Sat, Jul 4
75 °FPassing clouds.2 mph56%30.10 "Hg12 mi
10:00 PM81 °FPassing clouds.2 mph45%30.10 "Hg19 mi
9:00 PM84 °FPassing clouds.2 mph41%30.09 "Hg9 mi
8:00 PM87 °FPassing clouds.1 mph36%30.09 "Hg25 mi
7:00 PM89 °FPassing clouds.3 mph31%30.09 "Hg25 mi
6:00 PM90 °FPassing clouds.2 mph30%30.10 "Hg25 mi
5:00 PM91 °FPassing clouds.1 mph28%30.11 "Hg25 mi
4:00 PM91 °FPassing clouds.2 mph30%30.13 "Hg19 mi
3:00 PM89 °FPassing clouds.2 mph31%30.14 "Hg19 mi
2:00 PM89 °FPassing clouds.2 mph32%30.16 "Hg19 mi
1:00 PM87 °FScattered clouds.2 mph33%30.18 "Hg19 mi
12:00 PM85 °FPartly sunny.3 mph35%30.19 "Hg19 mi
11:00 AM84 °FPartly sunny.5 mph35%30.20 "Hg19 mi
10:00 AM81 °FPartly sunny.5 mph39%30.21 "Hg19 mi
9:00 AM77 °FScattered clouds.3 mph50%30.23 "Hg22 mi
8:00 AM72 °FPassing clouds.3 mph56%30.24 "Hg19 mi
Weather by CustomWeather, © 2015

See weather overviewHow to use our weather pages